ONEWEB-0533 (55141 NORAD) Tracking and Keplerian Element Data

This shows tracking and keplerian element data for the satellite.

Feedback or suggestion? Click here.




ElementValue
Catalog55141
NameONEWEB-0533
Epoch Orbit130
Epoch Day13.91667824
Epoch Year2023
RAAN284.1398
Inclination86.511
Eccentricity0.0011062
Argument of Perigee200.5449
Mean Anonmoly67.3365
Mean Motion14.91127574
Decay Rate-0.00049149
L11 55141U 23004B 23013.91667824 -.00049149 00000+0 -49964-2 0 9999
L22 55141 86.5110 284.1398 0011062 200.5449 67.3365 14.91127574 1303



Live tracking and technical data element details for ONEWEB-0533 (NORAD 55141). ONEWEB-0533 can be tracked NOW for your location showing map with azimuth and elevation plus other details from your city location.







IsCatalogInMostPopularTable: catalog: 55141, numindb: 3
Update: records affected: 1



GetName: 55141 ONEWEB-0533

Hit Count: updated at: Tue, 07 Feb 2023 15:26:36 GMT